ABX3902 KBWI-KRFD

Flight info

Callsign ABX3902
Flight time 1h 49m
Altitude 40000
Route LINSE2 MCRAY Q178 KOZAR DJB GIJ OBK HIGUH EMMAS1
Aircraft A333/H-SDE3GHIJ2J3J5M1RVWXY/LB2D1

Departure

Time 2026-04-26 01:59
Airport Baltimore/Washington International Thurgood Marshall Airport (KBWI)

Arrival

Time 2026-04-26 03:48
Airport Chicago Rockford International Airport (KRFD)
Time Latitude Longitude Altitude Speed Heading
2026-04-26 01:45 39.17118 -76.68097 160 ft 0 kts 184°
2026-04-26 01:50 39.17121 -76.68097 160 ft 2 kts 184°
2026-04-26 01:50 39.17137 -76.68095 159 ft 2 kts 186°
2026-04-26 01:51 39.17154 -76.68093 159 ft 2 kts 187°
2026-04-26 01:51 39.17170 -76.68090 159 ft 2 kts 189°
2026-04-26 01:51 39.17186 -76.68086 159 ft 2 kts 194°
2026-04-26 01:51 39.17202 -76.68080 158 ft 2 kts 206°
2026-04-26 01:52 39.17215 -76.68068 158 ft 2 kts 242°
2026-04-26 01:52 39.17219 -76.68051 158 ft 1 kts 271°
2026-04-26 01:52 39.17219 -76.68047 158 ft 0 kts 273°
2026-04-26 01:52 39.17219 -76.68049 158 ft 0 kts 273°
2026-04-26 01:53 39.17220 -76.68077 158 ft 5 kts 273°
2026-04-26 01:53 39.17223 -76.68132 158 ft 7 kts 273°
2026-04-26 01:53 39.17230 -76.68172 158 ft 0 kts 301°
2026-04-26 01:55 39.17232 -76.68181 158 ft 3 kts 286°
2026-04-26 01:55 39.17236 -76.68211 159 ft 4 kts 278°
2026-04-26 01:55 39.17239 -76.68260 160 ft 8 kts 274°
2026-04-26 01:56 39.17245 -76.68359 162 ft 11 kts 274°
2026-04-26 01:56 39.17250 -76.68460 164 ft 13 kts 272°
2026-04-26 01:56 39.17256 -76.68592 164 ft 16 kts 274°
2026-04-26 01:56 39.17264 -76.68730 166 ft 16 kts 274°
2026-04-26 01:57 39.17272 -76.68866 169 ft 13 kts 274°
2026-04-26 01:57 39.17300 -76.68951 169 ft 9 kts 328°
2026-04-26 01:57 39.17369 -76.68962 170 ft 11 kts
2026-04-26 01:57 39.17451 -76.68947 169 ft 13 kts 30°
2026-04-26 01:58 39.17467 -76.68808 169 ft 30 kts 94°
2026-04-26 01:58 39.17436 -76.68262 161 ft 91 kts 94°
2026-04-26 01:58 39.17377 -76.67211 196 ft 139 kts 92°
2026-04-26 01:58 39.17312 -76.65963 726 ft 138 kts 90°
2026-04-26 01:59 39.17262 -76.64737 1323 ft 140 kts 90°
2026-04-26 01:59 39.17224 -76.63406 1635 ft 156 kts 91°
2026-04-26 01:59 39.17180 -76.61933 1934 ft 173 kts 93°
2026-04-26 01:59 39.16750 -76.60415 2189 ft 196 kts 133°
2026-04-26 02:00 39.15459 -76.59685 2498 ft 221 kts 177°
2026-04-26 02:00 39.13943 -76.60350 2952 ft 241 kts 207°
2026-04-26 02:00 39.12515 -76.61510 3680 ft 245 kts 218°
2026-04-26 02:00 39.11378 -76.63163 4435 ft 251 kts 240°
2026-04-26 02:01 39.11000 -76.65320 5205 ft 257 kts 275°
2026-04-26 02:01 39.11617 -76.67486 6033 ft 261 kts 298°
2026-04-26 02:01 39.12608 -76.69470 6840 ft 265 kts 301°
2026-04-26 02:01 39.13611 -76.71485 7630 ft 269 kts 300°
2026-04-26 02:02 39.14602 -76.73550 8468 ft 272 kts 298°
2026-04-26 02:02 39.15403 -76.75757 9324 ft 273 kts 291°
2026-04-26 02:02 39.16126 -76.78040 10168 ft 275 kts 290°
2026-04-26 02:02 39.16839 -76.80343 10686 ft 288 kts 291°
2026-04-26 02:03 39.17674 -76.82797 10984 ft 308 kts 293°
2026-04-26 02:03 39.18581 -76.85375 11370 ft 323 kts 293°
2026-04-26 02:03 39.19529 -76.88044 11974 ft 330 kts 294°
2026-04-26 02:03 39.20489 -76.90744 12670 ft 333 kts 294°
2026-04-26 02:04 39.21463 -76.93482 13365 ft 337 kts 294°
2026-04-26 02:04 39.22446 -76.96248 14044 ft 341 kts 294°
2026-04-26 02:04 39.23436 -76.99038 14671 ft 343 kts 294°
2026-04-26 02:04 39.24433 -77.01850 15313 ft 345 kts 294°
2026-04-26 02:05 39.25433 -77.04675 15925 ft 348 kts 294°
2026-04-26 02:05 39.26442 -77.07529 16560 ft 350 kts 294°
2026-04-26 02:05 39.27456 -77.10398 17167 ft 353 kts 294°
2026-04-26 02:05 39.28479 -77.13296 17774 ft 355 kts 294°
2026-04-26 02:06 39.29508 -77.16213 18358 ft 358 kts 294°
2026-04-26 02:06 39.30543 -77.19150 18862 ft 361 kts 294°
2026-04-26 02:06 39.31572 -77.22073 19366 ft 363 kts 294°
2026-04-26 02:06 39.32619 -77.25053 19852 ft 365 kts 294°
2026-04-26 02:07 39.33667 -77.28037 20012 ft 365 kts 293°
2026-04-26 02:07 39.34715 -77.31025 20015 ft 361 kts 293°
2026-04-26 02:07 39.35722 -77.33896 20005 ft 338 kts 293°
2026-04-26 02:07 39.36661 -77.36573 20008 ft 319 kts 293°
2026-04-26 02:08 39.37569 -77.39168 20047 ft 316 kts 293°
2026-04-26 02:08 39.38471 -77.41753 20043 ft 314 kts 293°
2026-04-26 02:08 39.39389 -77.44387 20048 ft 330 kts 293°
2026-04-26 02:08 39.40360 -77.47173 20081 ft 349 kts 293°
2026-04-26 02:09 39.41375 -77.50086 20291 ft 360 kts 293°
2026-04-26 02:09 39.42413 -77.53068 20650 ft 366 kts 293°
2026-04-26 02:09 39.43451 -77.56051 21111 ft 369 kts 292°
2026-04-26 02:09 39.44507 -77.59087 21591 ft 372 kts 292°
2026-04-26 02:10 39.45571 -77.62151 22068 ft 374 kts 292°
2026-04-26 02:10 39.46638 -77.65229 22570 ft 375 kts 292°
2026-04-26 02:10 39.47711 -77.68327 23075 ft 377 kts 291°
2026-04-26 02:10 39.48786 -77.71432 23555 ft 378 kts 291°
2026-04-26 02:11 39.49864 -77.74554 23936 ft 380 kts 291°
2026-04-26 02:11 39.50936 -77.77657 24285 ft 383 kts 291°
2026-04-26 02:11 39.52025 -77.80817 24648 ft 386 kts 290°
2026-04-26 02:11 39.53121 -77.83999 25008 ft 388 kts 290°
2026-04-26 02:12 39.54200 -77.87209 25372 ft 390 kts 289°
2026-04-26 02:12 39.55234 -77.90465 25723 ft 391 kts 288°
2026-04-26 02:12 39.56244 -77.93750 26071 ft 393 kts 288°
2026-04-26 02:12 39.57249 -77.97068 26442 ft 395 kts 287°
2026-04-26 02:13 39.58253 -78.00388 26833 ft 396 kts 287°
2026-04-26 02:13 39.59261 -78.03718 27187 ft 398 kts 287°
2026-04-26 02:13 39.60276 -78.07060 27534 ft 400 kts 287°
2026-04-26 02:13 39.61298 -78.10420 27867 ft 401 kts 287°
2026-04-26 02:14 39.62329 -78.13805 28166 ft 404 kts 287°
2026-04-26 02:14 39.63361 -78.17194 28485 ft 406 kts 287°
2026-04-26 02:14 39.64399 -78.20604 28822 ft 407 kts 286°
2026-04-26 02:14 39.65442 -78.24030 29157 ft 409 kts 286°
2026-04-26 02:15 39.66484 -78.27462 29640 ft 407 kts 287°
2026-04-26 02:15 39.67521 -78.30877 30050 ft 407 kts 286°
2026-04-26 02:15 39.68559 -78.34305 30298 ft 409 kts 286°
2026-04-26 02:15 39.69602 -78.37756 30516 ft 412 kts 286°
2026-04-26 02:16 39.70649 -78.41227 30715 ft 414 kts 286°
2026-04-26 02:16 39.71704 -78.44729 30962 ft 417 kts 286°
2026-04-26 02:16 39.72761 -78.48242 31191 ft 419 kts 286°
2026-04-26 02:16 39.73812 -78.51738 31417 ft 421 kts 285°
2026-04-26 02:17 39.74877 -78.55285 31656 ft 422 kts 285°
2026-04-26 02:17 39.75946 -78.58848 31907 ft 424 kts 285°
2026-04-26 02:17 39.77019 -78.62426 32172 ft 424 kts 285°
2026-04-26 02:17 39.78092 -78.66005 32511 ft 424 kts 285°
2026-04-26 02:18 39.78798 -78.68365 32733 ft 423 kts 285°
2026-04-26 02:18 39.79863 -78.71929 33007 ft 424 kts 284°
2026-04-26 02:18 39.80929 -78.75500 33344 ft 423 kts 284°
2026-04-26 02:18 39.81994 -78.79075 33634 ft 423 kts 284°
2026-04-26 02:19 39.83401 -78.83808 34013 ft 422 kts 283°
2026-04-26 02:19 39.84117 -78.86219 34215 ft 422 kts 284°
2026-04-26 02:19 39.84630 -78.87947 34341 ft 421 kts 284°
2026-04-26 02:20 39.85458 -78.90734 34567 ft 419 kts 284°
2026-04-26 02:20 39.86505 -78.94267 34843 ft 417 kts 284°
2026-04-26 02:20 39.87150 -78.96446 34994 ft 416 kts 284°
2026-04-26 02:22 39.88231 -79.00105 35220 ft 415 kts 284°
2026-04-26 02:22 39.89268 -79.03624 35458 ft 414 kts 284°
2026-04-26 02:22 39.90287 -79.07085 35705 ft 414 kts 284°
2026-04-26 02:22 39.91316 -79.10586 35877 ft 415 kts 285°
2026-04-26 02:23 39.92346 -79.14093 36108 ft 414 kts 285°
2026-04-26 02:23 39.93374 -79.17597 36362 ft 413 kts 285°
2026-04-26 02:23 39.94398 -79.21091 36621 ft 412 kts 285°
2026-04-26 02:23 39.95419 -79.24577 36852 ft 411 kts 285°
2026-04-26 02:24 39.96435 -79.28056 37093 ft 411 kts 285°
2026-04-26 02:24 39.97452 -79.31540 37314 ft 410 kts 285°
2026-04-26 02:24 39.98464 -79.35011 37540 ft 409 kts 286°
2026-04-26 02:24 39.99484 -79.38476 37757 ft 410 kts 288°
2026-04-26 02:25 40.00723 -79.41843 37972 ft 413 kts 294°
2026-04-26 02:25 40.02216 -79.45065 38124 ft 416 kts 297°
2026-04-26 02:25 40.03766 -79.48214 38166 ft 420 kts 298°
2026-04-26 02:25 40.05382 -79.51392 38337 ft 420 kts 298°
2026-04-26 02:26 40.07014 -79.54553 38565 ft 419 kts 299°
2026-04-26 02:26 40.08644 -79.57697 38760 ft 418 kts 299°
2026-04-26 02:26 40.10273 -79.60843 38899 ft 418 kts 299°
2026-04-26 02:26 40.11895 -79.63989 39010 ft 418 kts 299°
2026-04-26 02:27 40.13517 -79.67150 39113 ft 418 kts 299°
2026-04-26 02:27 40.15135 -79.70311 39220 ft 418 kts 299°
2026-04-26 02:27 40.16750 -79.73476 39338 ft 419 kts 299°
2026-04-26 02:27 40.18367 -79.76648 39451 ft 419 kts 299°
2026-04-26 02:28 40.19980 -79.79819 39545 ft 419 kts 299°
2026-04-26 02:28 40.23228 -79.86210 39629 ft 423 kts 299°
2026-04-26 02:28 40.24855 -79.89414 39755 ft 422 kts 299°
2026-04-26 02:29 40.26479 -79.92616 39878 ft 422 kts 299°
2026-04-26 02:29 40.28106 -79.95826 39981 ft 422 kts 299°
2026-04-26 02:29 40.29713 -79.99001 40005 ft 424 kts 299°
2026-04-26 02:30 40.32994 -80.05497 40008 ft 430 kts 299°
2026-04-26 02:30 40.36298 -80.12048 40011 ft 430 kts 299°
2026-04-26 02:31 40.39589 -80.18583 40040 ft 430 kts 299°
2026-04-26 02:31 40.42888 -80.25153 40036 ft 431 kts 299°
2026-04-26 02:32 40.46187 -80.31735 40036 ft 431 kts 299°
2026-04-26 02:32 40.49456 -80.38272 40036 ft 431 kts 299°
2026-04-26 02:33 40.52749 -80.44870 40040 ft 431 kts 299°
2026-04-26 02:33 40.56037 -80.51473 40041 ft 431 kts 299°
2026-04-26 02:34 40.59307 -80.58053 40050 ft 432 kts 299°
2026-04-26 02:34 40.62592 -80.64679 40050 ft 432 kts 299°
2026-04-26 02:35 40.65879 -80.71323 40050 ft 432 kts 299°
2026-04-26 02:35 40.69160 -80.77969 40044 ft 432 kts 299°
2026-04-26 02:36 40.72437 -80.84621 40045 ft 432 kts 299°
2026-04-26 02:36 40.75708 -80.91276 40049 ft 432 kts 299°
2026-04-26 02:37 40.78959 -80.97905 40053 ft 433 kts 300°
2026-04-26 02:37 40.82234 -81.04597 40052 ft 433 kts 299°
2026-04-26 02:38 40.85504 -81.11293 40061 ft 433 kts 299°
2026-04-26 02:38 40.88769 -81.17992 40065 ft 433 kts 299°
2026-04-26 02:39 40.92030 -81.24698 40068 ft 433 kts 299°
2026-04-26 02:39 40.95270 -81.31376 40073 ft 433 kts 299°
2026-04-26 02:40 40.98523 -81.38095 40083 ft 433 kts 299°
2026-04-26 02:40 41.01771 -81.44818 40080 ft 433 kts 299°
2026-04-26 02:41 41.05021 -81.51560 40082 ft 433 kts 300°
2026-04-26 02:41 41.08244 -81.58261 40069 ft 434 kts 299°
2026-04-26 02:42 41.11481 -81.65006 40068 ft 433 kts 299°
2026-04-26 02:42 41.14713 -81.71754 40078 ft 433 kts 300°
2026-04-26 02:43 41.19553 -81.81890 40085 ft 433 kts 299°
2026-04-26 02:43 41.22775 -81.88655 40085 ft 433 kts 299°
2026-04-26 02:44 41.25969 -81.95378 40089 ft 433 kts 299°
2026-04-26 02:44 41.29182 -82.02155 40114 ft 433 kts 299°
2026-04-26 02:45 41.32392 -82.08940 40112 ft 433 kts 299°
2026-04-26 02:45 41.35240 -82.15956 40111 ft 429 kts 289°
2026-04-26 02:46 41.36705 -82.23610 40111 ft 427 kts 279°
2026-04-26 02:46 41.37659 -82.31372 40108 ft 427 kts 277°
2026-04-26 02:47 41.38524 -82.39197 40112 ft 427 kts 277°
2026-04-26 02:47 41.39395 -82.47022 40102 ft 426 kts 277°
2026-04-26 02:48 41.40280 -82.54829 40095 ft 426 kts 278°
2026-04-26 02:48 41.41168 -82.62637 40093 ft 426 kts 277°
2026-04-26 02:49 41.42053 -82.70456 40092 ft 426 kts 277°
2026-04-26 02:49 41.42925 -82.78226 40094 ft 426 kts 277°
2026-04-26 02:50 41.43795 -82.86030 40090 ft 426 kts 277°
2026-04-26 02:50 41.44663 -82.93856 40092 ft 426 kts 277°
2026-04-26 02:51 41.45523 -83.01671 40086 ft 426 kts 277°
2026-04-26 02:51 41.46378 -83.09486 40092 ft 424 kts 277°
2026-04-26 02:52 41.47214 -83.17178 40088 ft 420 kts 277°
2026-04-26 02:52 41.48049 -83.24909 40085 ft 421 kts 277°
2026-04-26 02:53 41.48879 -83.32645 40085 ft 421 kts 277°
2026-04-26 02:53 41.49705 -83.40393 40081 ft 421 kts 277°
2026-04-26 02:54 41.50519 -83.48083 40118 ft 421 kts 277°
2026-04-26 02:54 41.51334 -83.55829 40123 ft 421 kts 277°
2026-04-26 02:55 41.52144 -83.63578 40114 ft 421 kts 277°
2026-04-26 02:55 41.52950 -83.71337 40107 ft 421 kts 277°
2026-04-26 02:56 41.53745 -83.79045 40108 ft 422 kts 277°
2026-04-26 02:56 41.54539 -83.86802 40109 ft 422 kts 277°
2026-04-26 02:57 41.55330 -83.94573 40103 ft 422 kts 277°
2026-04-26 02:57 41.56115 -84.02347 40110 ft 422 kts 277°
2026-04-26 02:58 41.56891 -84.10080 40112 ft 422 kts 277°
2026-04-26 02:58 41.57665 -84.17850 40104 ft 422 kts 277°
2026-04-26 02:59 41.58434 -84.25622 40109 ft 422 kts 277°
2026-04-26 02:59 41.59198 -84.33397 40105 ft 423 kts 276°
2026-04-26 03:00 41.59960 -84.41213 40091 ft 424 kts 276°
2026-04-26 03:00 41.60710 -84.48958 40093 ft 424 kts 276°
2026-04-26 03:01 41.61463 -84.56788 40093 ft 424 kts 276°
2026-04-26 03:01 41.62211 -84.64620 40088 ft 424 kts 276°
2026-04-26 03:02 41.62947 -84.72388 40094 ft 424 kts 276°
2026-04-26 03:02 41.63684 -84.80225 40090 ft 425 kts 276°
2026-04-26 03:03 41.64416 -84.88062 40090 ft 425 kts 276°
2026-04-26 03:03 41.65142 -84.95903 40094 ft 425 kts 276°
2026-04-26 03:04 41.65865 -85.03761 40092 ft 425 kts 276°
2026-04-26 03:04 41.66581 -85.11615 40095 ft 426 kts 276°
2026-04-26 03:05 41.67295 -85.19492 40085 ft 427 kts 276°
2026-04-26 03:05 41.67999 -85.27325 40088 ft 427 kts 276°
2026-04-26 03:06 41.68701 -85.35209 40101 ft 427 kts 276°
2026-04-26 03:06 41.69282 -85.41774 40105 ft 427 kts 276°
2026-04-26 03:07 41.69976 -85.49671 40102 ft 427 kts 276°
2026-04-26 03:07 41.70665 -85.57579 40098 ft 428 kts 276°
2026-04-26 03:08 41.71349 -85.65489 40098 ft 428 kts 276°
2026-04-26 03:08 41.72028 -85.73406 40087 ft 428 kts 276°
2026-04-26 03:09 41.72698 -85.81279 40089 ft 428 kts 276°
2026-04-26 03:09 41.73365 -85.89193 40096 ft 428 kts 275°
2026-04-26 03:10 41.74028 -85.97119 40092 ft 428 kts 275°
2026-04-26 03:10 41.74686 -86.05043 40088 ft 428 kts 275°
2026-04-26 03:11 41.75012 -86.09010 39956 ft 428 kts 275°
2026-04-26 03:11 41.75337 -86.12961 39722 ft 426 kts 275°
2026-04-26 03:11 41.75659 -86.16901 39494 ft 425 kts 275°
2026-04-26 03:11 41.75979 -86.20831 39226 ft 424 kts 275°
2026-04-26 03:12 41.76296 -86.24748 38821 ft 423 kts 275°
2026-04-26 03:12 41.76614 -86.28670 38313 ft 423 kts 276°
2026-04-26 03:12 41.77227 -86.32511 37915 ft 421 kts 286°
2026-04-26 03:12 41.78133 -86.36184 37487 ft 419 kts 287°
2026-04-26 03:13 41.79118 -86.39868 37005 ft 419 kts 288°
2026-04-26 03:13 41.80144 -86.43519 36516 ft 419 kts 289°
2026-04-26 03:13 41.81190 -86.47159 36028 ft 418 kts 289°
2026-04-26 03:13 41.82243 -86.50803 35482 ft 419 kts 290°
2026-04-26 03:14 41.83297 -86.54458 34930 ft 421 kts 290°
2026-04-26 03:14 41.84349 -86.58130 34361 ft 422 kts 290°
2026-04-26 03:14 41.85398 -86.61816 33738 ft 424 kts 290°
2026-04-26 03:14 41.86448 -86.65519 33129 ft 425 kts 290°
2026-04-26 03:15 41.87497 -86.69229 32530 ft 425 kts 290°
2026-04-26 03:15 41.88545 -86.72949 31931 ft 426 kts 290°
2026-04-26 03:15 41.89586 -86.76648 31525 ft 421 kts 290°
2026-04-26 03:15 41.90604 -86.80270 31131 ft 418 kts 290°
2026-04-26 03:16 41.91623 -86.83900 30716 ft 414 kts 290°
2026-04-26 03:16 41.92634 -86.87509 30291 ft 411 kts 290°
2026-04-26 03:16 41.93636 -86.91089 29822 ft 408 kts 290°
2026-04-26 03:16 41.94632 -86.94653 29394 ft 404 kts 290°
2026-04-26 03:17 41.95614 -86.98171 28977 ft 400 kts 290°
2026-04-26 03:17 41.96586 -87.01660 28563 ft 398 kts 290°
2026-04-26 03:17 41.97556 -87.05143 28137 ft 397 kts 290°
2026-04-26 03:17 41.98520 -87.08612 27727 ft 395 kts 290°
2026-04-26 03:18 41.99477 -87.12060 27334 ft 392 kts 289°
2026-04-26 03:18 42.00428 -87.15491 26911 ft 390 kts 289°
2026-04-26 03:18 42.01361 -87.18863 26476 ft 388 kts 289°
2026-04-26 03:18 42.02300 -87.22260 26078 ft 386 kts 289°
2026-04-26 03:19 42.03233 -87.25639 25666 ft 384 kts 289°
2026-04-26 03:19 42.04160 -87.29001 25259 ft 382 kts 289°
2026-04-26 03:19 42.05082 -87.32352 24866 ft 381 kts 289°
2026-04-26 03:19 42.06001 -87.35696 24425 ft 379 kts 289°
2026-04-26 03:20 42.06910 -87.39005 24027 ft 377 kts 289°
2026-04-26 03:20 42.07815 -87.42306 23617 ft 374 kts 289°
2026-04-26 03:20 42.08713 -87.45586 23179 ft 371 kts 289°
2026-04-26 03:20 42.09600 -87.48826 22786 ft 367 kts 289°
2026-04-26 03:21 42.10481 -87.52051 22387 ft 366 kts 288°
2026-04-26 03:21 42.11347 -87.55228 21998 ft 365 kts 288°
2026-04-26 03:21 42.12223 -87.58442 21601 ft 364 kts 288°
2026-04-26 03:21 42.13091 -87.61634 21208 ft 363 kts 288°
2026-04-26 03:22 42.13957 -87.64821 20813 ft 361 kts 288°
2026-04-26 03:22 42.14817 -87.67991 20431 ft 359 kts 288°
2026-04-26 03:22 42.15673 -87.71150 20042 ft 358 kts 288°
2026-04-26 03:22 42.16523 -87.74290 19664 ft 356 kts 288°
2026-04-26 03:23 42.17370 -87.77422 19276 ft 355 kts 288°
2026-04-26 03:23 42.18203 -87.80508 18899 ft 353 kts 287°
2026-04-26 03:23 42.19042 -87.83617 18505 ft 351 kts 287°
2026-04-26 03:23 42.19874 -87.86708 18055 ft 350 kts 287°
2026-04-26 03:24 42.20704 -87.89786 17599 ft 348 kts 288°
2026-04-26 03:24 42.21772 -87.92708 17230 ft 348 kts 300°
2026-04-26 03:24 42.23331 -87.95213 16865 ft 352 kts 316°
2026-04-26 03:24 42.25365 -87.97068 16439 ft 354 kts 329°
2026-04-26 03:25 42.27580 -87.98569 16090 ft 360 kts 330°
2026-04-26 03:25 42.29670 -88.00491 15822 ft 367 kts 314°
2026-04-26 03:25 42.31202 -88.03225 15610 ft 363 kts 296°
2026-04-26 03:25 42.32333 -88.06273 15407 ft 362 kts 292°
2026-04-26 03:26 42.33373 -88.09324 15224 ft 361 kts 292°
2026-04-26 03:26 42.34415 -88.12402 15030 ft 360 kts 292°
2026-04-26 03:26 42.35461 -88.15479 14842 ft 359 kts 292°
2026-04-26 03:26 42.36508 -88.18546 14642 ft 359 kts 292°
2026-04-26 03:27 42.37554 -88.21604 14447 ft 358 kts 292°
2026-04-26 03:27 42.38601 -88.24660 14249 ft 357 kts 292°
2026-04-26 03:27 42.39645 -88.27710 14058 ft 356 kts 292°
2026-04-26 03:27 42.40684 -88.30745 13851 ft 354 kts 292°
2026-04-26 03:28 42.41716 -88.33763 13647 ft 353 kts 292°
2026-04-26 03:28 42.42744 -88.36775 13457 ft 352 kts 292°
2026-04-26 03:28 42.43770 -88.39781 13285 ft 351 kts 292°
2026-04-26 03:28 42.44792 -88.42780 13078 ft 350 kts 292°
2026-04-26 03:29 42.45809 -88.45767 12892 ft 349 kts 292°
2026-04-26 03:29 42.46823 -88.48748 12700 ft 347 kts 292°
2026-04-26 03:29 42.47819 -88.51680 12512 ft 346 kts 292°
2026-04-26 03:29 42.48823 -88.54636 12325 ft 345 kts 292°
2026-04-26 03:30 42.49824 -88.57587 12135 ft 344 kts 292°
2026-04-26 03:30 42.50821 -88.60531 11958 ft 343 kts 292°
2026-04-26 03:30 42.51813 -88.63465 11741 ft 342 kts 292°
2026-04-26 03:30 42.52801 -88.66388 11570 ft 340 kts 292°
2026-04-26 03:31 42.53775 -88.69268 11414 ft 329 kts 293°
2026-04-26 03:31 42.54705 -88.72018 11231 ft 311 kts 292°
2026-04-26 03:31 42.55573 -88.74599 11064 ft 291 kts 291°
2026-04-26 03:31 42.56198 -88.77159 10810 ft 291 kts 281°
2026-04-26 03:32 42.56610 -88.79850 10342 ft 292 kts 278°
2026-04-26 03:32 42.56969 -88.82560 9957 ft 291 kts 279°
2026-04-26 03:32 42.57326 -88.85260 9563 ft 290 kts 279°
2026-04-26 03:32 42.57684 -88.87954 9174 ft 289 kts 279°
2026-04-26 03:33 42.58043 -88.90635 8790 ft 288 kts 279°
2026-04-26 03:33 42.58404 -88.93313 8413 ft 288 kts 279°
2026-04-26 03:33 42.58766 -88.95995 8036 ft 290 kts 279°
2026-04-26 03:33 42.59111 -88.98695 7653 ft 291 kts 276°
2026-04-26 03:34 42.59035 -89.01412 7280 ft 288 kts 254°
2026-04-26 03:34 42.58148 -89.03808 6905 ft 285 kts 231°
2026-04-26 03:34 42.56855 -89.05837 6523 ft 284 kts 225°
2026-04-26 03:34 42.55514 -89.07804 6145 ft 283 kts 225°
2026-04-26 03:35 42.54207 -89.09753 5769 ft 283 kts 226°
2026-04-26 03:35 42.52913 -89.11772 5384 ft 284 kts 227°
2026-04-26 03:35 42.51626 -89.13814 5018 ft 284 kts 227°
2026-04-26 03:35 42.50351 -89.15860 4643 ft 284 kts 227°
2026-04-26 03:36 42.49062 -89.17883 4263 ft 282 kts 223°
2026-04-26 03:36 42.47619 -89.19664 3887 ft 279 kts 215°
2026-04-26 03:36 42.46121 -89.21337 3522 ft 279 kts 217°
2026-04-26 03:36 42.44659 -89.23019 3166 ft 278 kts 217°
2026-04-26 03:37 42.43200 -89.24704 2997 ft 274 kts 217°
2026-04-26 03:37 42.41748 -89.26384 2993 ft 275 kts 217°
2026-04-26 03:37 42.40284 -89.28063 2989 ft 275 kts 214°
2026-04-26 03:37 42.38718 -89.29519 2996 ft 272 kts 208°
2026-04-26 03:38 42.37107 -89.30849 2992 ft 271 kts 207°
2026-04-26 03:38 42.35486 -89.32169 2994 ft 271 kts 207°
2026-04-26 03:38 42.33879 -89.33482 2985 ft 265 kts 207°
2026-04-26 03:38 42.32357 -89.34738 3005 ft 247 kts 207°
2026-04-26 03:39 42.30941 -89.35920 2997 ft 233 kts 207°
2026-04-26 03:39 42.29591 -89.37055 2998 ft 231 kts 207°
2026-04-26 03:39 42.28228 -89.38202 2994 ft 231 kts 207°
2026-04-26 03:39 42.26861 -89.39351 2998 ft 231 kts 207°
2026-04-26 03:40 42.25500 -89.40496 2992 ft 231 kts 207°
2026-04-26 03:40 42.24136 -89.41645 3000 ft 231 kts 207°
2026-04-26 03:40 42.22763 -89.42786 2995 ft 230 kts 204°
2026-04-26 03:40 42.21273 -89.43314 2994 ft 218 kts 173°
2026-04-26 03:41 42.19802 -89.42952 3000 ft 213 kts 159°
2026-04-26 03:41 42.18400 -89.42384 2980 ft 213 kts 157°
2026-04-26 03:41 42.16990 -89.41777 2974 ft 213 kts 157°
2026-04-26 03:41 42.15577 -89.41169 2974 ft 213 kts 157°
2026-04-26 03:42 42.14165 -89.40555 2971 ft 211 kts 157°
2026-04-26 03:42 42.12821 -89.39962 2973 ft 195 kts 156°
2026-04-26 03:42 42.11605 -89.39259 2977 ft 186 kts 138°
2026-04-26 03:42 42.10862 -89.37891 2988 ft 181 kts 112°
2026-04-26 03:43 42.10740 -89.36255 2983 ft 180 kts 76°
2026-04-26 03:43 42.11239 -89.34741 2983 ft 174 kts 65°
2026-04-26 03:43 42.11770 -89.33292 2984 ft 172 kts 68°
2026-04-26 03:43 42.12275 -89.31835 2988 ft 171 kts 68°
2026-04-26 03:44 42.12773 -89.30381 2983 ft 171 kts 68°
2026-04-26 03:44 42.13267 -89.28926 2989 ft 170 kts 68°
2026-04-26 03:44 42.13737 -89.27547 2967 ft 153 kts 68°
2026-04-26 03:44 42.14149 -89.26338 2975 ft 131 kts 69°
2026-04-26 03:45 42.14507 -89.25286 2942 ft 122 kts 69°
2026-04-26 03:45 42.14858 -89.24245 2806 ft 122 kts 69°
2026-04-26 03:45 42.15209 -89.23209 2603 ft 121 kts 69°
2026-04-26 03:45 42.15561 -89.22176 2461 ft 121 kts 68°
2026-04-26 03:46 42.15911 -89.21148 2282 ft 121 kts 68°
2026-04-26 03:46 42.16259 -89.20125 2125 ft 119 kts 68°
2026-04-26 03:46 42.16602 -89.19116 1952 ft 117 kts 68°
2026-04-26 03:47 42.17269 -89.17133 1653 ft 117 kts 68°
2026-04-26 03:47 42.17600 -89.16116 1529 ft 123 kts 67°
2026-04-26 03:47 42.17964 -89.15060 1316 ft 125 kts 66°
2026-04-26 03:47 42.18345 -89.13981 1113 ft 129 kts 67°
2026-04-26 03:48 42.18590 -89.13248 1018 ft 131 kts 66°
2026-04-26 03:48 42.18846 -89.12498 885 ft 130 kts 63°
2026-04-26 03:48 42.19375 -89.10966 741 ft 91 kts 64°
2026-04-26 03:48 42.19548 -89.10452 740 ft 22 kts 65°
2026-04-26 03:49 42.19620 -89.10329 740 ft 17 kts 16°
2026-04-26 03:49 42.19683 -89.10385 741 ft 8 kts 281°
2026-04-26 03:49 42.19662 -89.10479 740 ft 11 kts 249°
2026-04-26 03:49 42.19626 -89.10581 741 ft 13 kts 244°
2026-04-26 03:50 42.19625 -89.10678 740 ft 11 kts 306°
2026-04-26 03:50 42.19698 -89.10732 741 ft 13 kts 335°
2026-04-26 03:50 42.19764 -89.10780 742 ft 3 kts 307°
2026-04-26 03:50 42.19755 -89.10820 743 ft 0 kts 242°